Home   Weather   Waipahu   Past weeks
Flag for USA

Past Weather in Waipahu, Hawaii, USA — Yesterday and Last 2 Weeks

Now
83 °F

Overcast.


Feels Like: 85 °F
Forecast: 87 / 72 °F
Wind: 12 mph from East

Location: Wheeler Air Force Base / Oahu

Current Time: Jun 19, 2019 at 3:49:09 pm

Latest Report: Jun 19, 2019 at 2:56 pm


Visibility: 10 mi

Pressure: 29.95 "Hg

Humidity: 57%

Dew Point: 66 °F

Location of WaipahuLocation

Past Weather in Waipahu — Graph

°F

Waipahu Temperature Yesterday

Maximum temperature yesterday: 84 °F (at 12:56 pm)
Minimum temperature yesterday: 72 °F (at 5:56 am)
Average temperature yesterday: 78 °F

High & Low Weather Summary for the Past Weeks

 TemperatureHumidityPressure
High86 °F (Jun 6, 2:56 pm)100% (Jun 5, 12:05 am)30.07 "Hg (Jun 5, 12:05 am)
Low64 °F (Jun 14, 4:56 am)45% (Jun 13, 4:56 pm)29.91 "Hg (Jun 16, 2:56 pm)
Average76 °F75%29.99 "Hg
* Reported Jun 4 1:16 pm — Jun 19 1:56 pm, Waipahu. Weather by CustomWeather, © 2019

Note: Actual official high and low records may vary slightly from our data, if they occured in-between our weather recording intervals... More about our weather records

Advertising

Waipahu Weather History for the Previous 24 Hours

Scroll right to see more
 ConditionsComfort  
Time TempWeatherWind HumidityBarometerVisibility
1:56 pm
Wed, Jun 19
83 °FScattered clouds.13 mph58%29.95 "Hg10 mi
12:56 pm85 °FScattered clouds.16 mph58%29.96 "Hg10 mi
11:56 am84 °FBroken clouds.14 mph60%29.98 "Hg10 mi
10:56 am83 °FPassing clouds.16 mph58%29.98 "Hg10 mi
9:56 am82 °FSunny.14 mph60%29.99 "Hg10 mi
8:56 am80 °FPassing clouds.10 mph66%30.00 "Hg10 mi
7:56 am78 °FPassing clouds.3 mph71%30.00 "Hg10 mi
6:56 am76 °FScattered clouds.3 mph74%29.98 "Hg10 mi
5:56 am72 °FScattered clouds.No wind86%29.99 "Hg10 mi
4:56 am72 °FPassing clouds.3 mph88%29.98 "Hg10 mi
3:56 am74 °FMostly cloudy.No wind80%29.97 "Hg10 mi
2:56 am73 °FPartly cloudy.5 mph84%29.96 "Hg10 mi
1:56 am75 °FPassing clouds.3 mph78%29.98 "Hg10 mi
12:56 am75 °FOvercast.No wind77%29.99 "Hg10 mi
12:16 am75 °FMostly cloudy.No wind74%30.01 "Hg10 mi
10:56 pm
Tue, Jun 18
77 °FPassing clouds.6 mph70%30.01 "Hg10 mi
9:56 pm77 °FMostly cloudy.10 mph71%30.00 "Hg10 mi
9:21 pm77 °FMostly cloudy.8 mph69%30.00 "Hg10 mi
9:16 pm77 °FMostly cloudy.5 mph69%30.00 "Hg10 mi
8:56 pm77 °FMostly cloudy.No wind72%29.99 "Hg10 mi
7:56 pm77 °FPassing clouds.7 mph70%29.98 "Hg10 mi
6:56 pm78 °FOvercast.7 mph69%29.96 "Hg10 mi
5:56 pm80 °FSunny.9 mph64%29.95 "Hg10 mi
4:56 pm81 °FScattered clouds.10 mph62%29.95 "Hg10 mi
3:56 pm83 °FPassing clouds.15 mph58%29.95 "Hg10 mi
3:08 pm84 °FPassing clouds.15 mph55%29.94 "Hg10 mi
Weather by CustomWeather, © 2019

See weather overview